User: anonymous   Login
Location: Gloden
(48.4833°N, 15.3167°E)
Time: 01:01:34
(UTC+00:00)
Language:

Cosmos 2297 Rocket - Orbit

View from above orbital plane
View from above orbital plane
View from above satellite
View from above satellite

Ground track
Ground track

The orbit data is extracted from the following two-line orbital elements,

1 23405U 94077B   20047.48950127 -.00000267 +00000-0 -11296-3 0  9999
2 23405 070.9852 326.9034 0005146 276.9840 083.0697 14.15217195303102
Epoch (UTC): 16 February 2020 11:44:52
Eccentricity: 0.0005146
inclination: 70.9852°
perigee height: 838 km
apogee height: 845 km
right ascension of ascending node: 326.9034°
argument of perigee: 276.9840°
revolutions per day: 14.15217195
mean anomaly at epoch: 83.0697°
orbit number at epoch: 30310

The dashed part of the orbit path shows where the satellite is in the earth's shadow,  

DLR